Temp
-12 -11 -11 -11 -11 -10 -11 -11 -11 -11 -11 -10 -11 -10 -11 -11 -11 -10 -10 -10 -11 -11 -11 -11 -12 -11 -12 -12 -12 -11 -12 -11 -11 -12 -12 -12 -13 -14 -14 -14 -14 -15 -15 -15
-12 -11 -11 -11 -11 -11 -11 -11 -11 -10 -10 -11 -10 -10 -10 -11 -10 -10 -11 -11 -11 -12 -12 -12 -12 -12 -12 -12 -12 -12 -12 -12 -12 -12 -12 -12 -14 -14 -14 -15 -15 -15 -15 -15
-12 -12 -12 -12 -11 -11 -11 -11 -10 -10 -10 -11 -10 -10 -10 -10 -10 -10 -11 -11 -11 -12 -12 -13 -13 -12 -13 -13 -13 -13 -12 -12 -12 -13 -13 -14 -14 -15 -15 -15 -15 -15 -15 -15
-12 -12 -12 -12 -12 -12 -11 -11 -11 -10 -11 -11 -11 -11 -10 -11 -10 -10 -11 -12 -12 -13 -13 -13 -13 -13 -13 -13 -13 -13 -13 -13 -13 -13 -13 -14 -15 -15 -15 -15 -15 -15 -15 -15
-11 -12 -12 -12 -12 -11 -11 -11 -11 -11 -11 -11 -11 -11 -10 -11 -11 -11 -11 -12 -12 -12 -12 -13 -13 -12 -14 -13 -13 -13 -13 -13 -13 -14 -14 -15 -15 -15 -15 -15 -15 -15 -15 -15
-11 -12 -12 -12 -11 -11 -11 -12 -11 -11 -11 -11 -11 -11 -10 -10 -11 -11 -11 -11 -12 -12 -12 -13 -12 -13 -14 -13 -13 -13 -13 -13 -14 -14 -14 -15 -15 -15 -15 -16 -15 -15 -16 -16
-12 -12 -12 -11 -11 -11 -12 -12 -12 -11 -11 -10 -10 -10 -10 -10 -11 -11 -11 -11 -12 -12 -12 -12 -13 -13 -13 -13 -13 -13 -13 -14 -14 -14 -15 -15 -15 -15 -15 -15 -16 -16 -16 -16
-12 -12 -12 -11 -12 -12 -12 -12 -11 -11 -11 -10 -10 -10 -10 -11 -11 -11 -11 -11 -11 -12 -12 -13 -13 -13 -13 -13 -13 -14 -14 -14 -15 -15 -15 -16 -16 -16 -16 -16 -16 -16 -16 -17
-11 -11 -11 -11 -11 -11 -11 -11 -11 -11 -11 -10 -10 -10 -11 -12 -12 -12 -11 -11 -12 -12 -13 -13 -13 -13 -13 -13 -14 -14 -14 -15 -15 -15 -16 -17 -16 -16 -16 -16 -16 -16 -17 -17
-12 -11 -11 -11 -11 -11 -11 -11 -11 -11 -10 -10 -10 -10 -11 -12 -12 -12 -12 -12 -12 -13 -13 -13 -13 -14 -14 -14 -14 -15 -15 -16 -16 -16 -16 -17 -17 -17 -17 -16 -16 -17 -17 -18
-12 -12 -11 -11 -11 -11 -11 -11 -12 -11 -11 -10 -10 -10 -12 -12 -12 -12 -12 -13 -13 -13 -14 -14 -14 -14 -15 -15 -15 -15 -16 -16 -16 -16 -16 -17 -17 -17 -17 -17 -17 -17 -18 -19
-12 -11 -11 -11 -11 -11 -11 -11 -12 -11 -11 -10 -11 -11 -12 -12 -13 -13 -13 -14 -13 -13 -14 -14 -15 -15 -16 -16 -16 -16 -16 -16 -17 -17 -17 -18 -18 -17 -17 -17 -17 -18 -18 -19
-11 -11 -11 -11 -11 -11 -11 -12 -11 -11 -10 -11 -11 -12 -12 -12 -12 -13 -13 -13 -13 -14 -15 -15 -15 -16 -16 -16 -16 -17 -17 -17 -17 -18 -18 -18 -18 -17 -17 -17 -18 -18 -18 -20
-12 -11 -11 -11 -11 -11 -12 -11 -11 -11 -11 -11 -12 -11 -13 -13 -13 -13 -13 -13 -14 -15 -15 -15 -16 -16 -16 -17 -17 -17 -18 -18 -18 -19 -18 -18 -18 -18 -17 -18 -18 -18 -19 -20
-11 -12 -12 -12 -12 -12 -12 -12 -11 -11 -11 -11 -12 -13 -13 -13 -13 -13 -13 -14 -14 -14 -15 -15 -16 -17 -18 -18 -18 -18 -18 -19 -19 -19 -19 -18 -18 -18 -18 -18 -19 -18 -19 -20
-12 -11 -12 -12 -12 -12 -12 -12 -11 -11 -12 -12 -13 -13 -13 -13 -13 -13 -13 -14 -14 -15 -16 -17 -18 -18 -19 -19 -19 -19 -19 -20 -20 -19 -18 -18 -18 -18 -18 -19 -19 -19 -20 -20
-12 -12 -12 -13 -12 -12 -12 -12 -13 -12 -12 -13 -12 -12 -12 -13 -13 -13 -14 -14 -15 -15 -17 -18 -19 -19 -19 -19 -19 -19 -19 -20 -19 -19 -18 -18 -18 -18 -19 -19 -20 -20 -20 -21
-12 -12 -12 -13 -13 -12 -12 -12 -12 -13 -13 -12 -12 -12 -12 -13 -13 -13 -14 -15 -15 -16 -18 -19 -19 -19 -19 -20 -20 -21 -20 -19 -19 -19 -19 -18 -18 -19 -19 -19 -20 -20 -21 -21
-12 -13 -13 -13 -13 -12 -12 -12 -12 -12 -12 -12 -12 -12 -13 -13 -13 -14 -15 -15 -16 -17 -19 -19 -19 -19 -20 -20 -20 -21 -20 -19 -19 -19 -18 -18 -18 -19 -19 -20 -20 -21 -21 -21
-13 -13 -13 -13 -12 -12 -12 -12 -12 -12 -12 -12 -12 -13 -13 -13 -14 -14 -15 -16 -17 -19 -19 -19 -19 -19 -20 -20 -20 -20 -19 -19 -19 -19 -19 -19 -19 -20 -20 -21 -21 -21 -22 -22
-13 -13 -13 -13 -12 -12 -12 -12 -12 -12 -12 -12 -13 -13 -13 -13 -14 -15 -15 -16 -18 -19 -19 -19 -19 -19 -20 -20 -20 -20 -19 -19 -19 -19 -18 -19 -19 -20 -21 -22 -22 -22 -23 -22
-12 -12 -12 -12 -13 -13 -13 -13 -13 -12 -12 -13 -13 -13 -13 -14 -15 -15 -16 -17 -19 -19 -19 -19 -20 -20 -20 -20 -20 -20 -19 -19 -19 -19 -19 -19 -20 -21 -23 -25 -24 -24 -24 -23
-12 -12 -12 -12 -12 -12 -13 -13 -13 -12 -13 -13 -13 -13 -13 -14 -15 -15 -16 -18 -19 -19 -19 -19 -20 -20 -20 -19 -20 -19 -19 -19 -19 -19 -19 -20 -21 -23 -25 -26 -26 -25 -24 -23
-12 -12 -12 -12 -12 -13 -13 -13 -13 -13 -13 -13 -13 -13 -13 -14 -15 -15 -16 -17 -19 -19 -19 -19 -20 -20 -20 -19 -19 -19 -19 -19 -19 -19 -19 -20 -22 -24 -27 -28 -27 -26 -25 -23
-12 -12 -12 -12 -12 -12 -12 -12 -13 -13 -13 -13 -13 -13 -13 -14 -14 -14 -15 -16 -19 -19 -19 -19 -20 -20 -20 -19 -19 -19 -19 -19 -19 -19 -20 -20 -22 -25 -27 -28 -27 -26 -24 -23
-12 -12 -13 -12 -12 -12 -12 -12 -13 -13 -13 -13 -13 -13 -13 -14 -15 -16 -16 -16 -19 -18 -19 -19 -19 -19 -19 -19 -19 -19 -19 -19 -19 -19 -20 -22 -23 -25 -26 -27 -26 -25 -24 -23
Height
5890 5891 5890 5889 5889 5888 5887 5886 5883 5881 5879 5878 5875 5873 5872 5869 5866 5864 5860 5858 5854 5849 5845 5843 5839 5834 5830 5827 5824 5820 5816 5812 5808 5803 5797 5791 5785 5782 5778 5773 5769 5765 5761 5756
5889 5890 5889 5888 5888 5887 5885 5884 5881 5879 5876 5874 5872 5870 5868 5864 5862 5858 5855 5851 5847 5844 5840 5838 5834 5829 5826 5821 5818 5812 5808 5803 5799 5794 5788 5782 5778 5774 5770 5765 5760 5755 5751 5746
5886 5890 5887 5886 5886 5884 5882 5880 5879 5876 5872 5869 5867 5865 5863 5859 5856 5852 5849 5844 5841 5836 5834 5831 5827 5823 5819 5814 5809 5804 5800 5795 5790 5785 5779 5773 5769 5766 5761 5755 5750 5745 5741 5736
5882 5886 5884 5883 5882 5880 5879 5876 5875 5873 5869 5866 5864 5857 5858 5854 5850 5847 5842 5837 5833 5830 5827 5824 5820 5816 5811 5806 5803 5797 5792 5786 5781 5775 5770 5765 5761 5756 5751 5746 5741 5736 5730 5725
5883 5881 5880 5879 5878 5876 5875 5873 5871 5868 5865 5862 5859 5854 5855 5851 5846 5842 5837 5832 5829 5825 5822 5818 5815 5809 5804 5799 5794 5789 5783 5778 5772 5767 5762 5757 5753 5748 5743 5736 5731 5725 5719 5713
5877 5877 5876 5874 5874 5872 5871 5869 5867 5864 5859 5856 5854 5850 5850 5844 5840 5835 5831 5828 5823 5819 5815 5812 5807 5802 5797 5791 5786 5781 5775 5769 5763 5757 5752 5747 5743 5736 5730 5724 5719 5714 5708 5702
5873 5873 5873 5872 5871 5869 5867 5865 5861 5858 5856 5853 5848 5844 5842 5838 5833 5829 5824 5819 5815 5811 5808 5804 5800 5794 5788 5781 5776 5771 5766 5759 5753 5748 5742 5736 5731 5726 5720 5714 5710 5704 5698 5690
5868 5871 5870 5869 5867 5865 5863 5862 5859 5850 5849 5848 5844 5837 5836 5832 5826 5821 5817 5813 5809 5806 5802 5797 5791 5784 5778 5772 5767 5761 5756 5750 5745 5739 5733 5726 5721 5715 5709 5703 5698 5692 5685 5678
5866 5866 5865 5865 5864 5863 5858 5856 5854 5847 5842 5837 5836 5833 5831 5825 5820 5814 5810 5807 5803 5799 5794 5788 5782 5775 5768 5763 5757 5752 5746 5740 5735 5728 5721 5715 5710 5704 5697 5692 5686 5680 5673 5667
5861 5861 5861 5861 5859 5857 5852 5850 5847 5845 5836 5831 5828 5825 5821 5817 5811 5806 5803 5799 5795 5791 5785 5779 5772 5765 5759 5754 5747 5742 5737 5731 5725 5719 5713 5706 5700 5693 5687 5682 5676 5670 5663 5657
5857 5856 5857 5855 5852 5850 5847 5843 5840 5837 5834 5827 5821 5821 5816 5811 5806 5800 5796 5793 5789 5783 5777 5770 5763 5756 5749 5743 5737 5733 5728 5722 5716 5710 5703 5697 5691 5685 5678 5672 5666 5661 5654 5648
5851 5849 5848 5847 5844 5841 5840 5838 5833 5830 5828 5823 5819 5818 5811 5805 5799 5793 5790 5786 5781 5775 5768 5762 5755 5748 5741 5734 5729 5724 5718 5712 5706 5700 5693 5688 5681 5675 5669 5662 5657 5651 5645 5639
5846 5844 5841 5841 5839 5835 5833 5829 5827 5825 5822 5818 5814 5811 5804 5798 5793 5788 5783 5778 5773 5767 5760 5753 5747 5739 5732 5725 5720 5713 5707 5701 5695 5690 5683 5677 5671 5664 5658 5652 5647 5642 5636 5631
5840 5837 5836 5834 5833 5831 5829 5826 5822 5819 5816 5812 5808 5803 5799 5794 5789 5782 5777 5772 5765 5758 5751 5744 5737 5729 5722 5716 5710 5703 5697 5691 5685 5679 5672 5667 5661 5655 5649 5642 5637 5633 5628 5624
5833 5832 5830 5827 5826 5824 5823 5821 5818 5814 5810 5806 5802 5797 5792 5787 5781 5776 5770 5763 5756 5749 5743 5735 5726 5718 5712 5706 5699 5693 5688 5682 5675 5670 5664 5657 5652 5646 5640 5633 5628 5624 5620 5616
5829 5828 5826 5823 5821 5819 5817 5814 5812 5809 5805 5801 5796 5791 5786 5780 5775 5768 5762 5756 5749 5742 5733 5724 5715 5708 5701 5695 5689 5684 5679 5673 5667 5661 5654 5649 5642 5637 5630 5623 5619 5615 5612 5609
5825 5823 5821 5820 5817 5814 5812 5808 5805 5802 5798 5795 5792 5787 5781 5776 5770 5764 5756 5748 5739 5729 5721 5712 5705 5699 5693 5688 5682 5676 5669 5664 5659 5653 5646 5640 5634 5627 5619 5614 5610 5606 5604 5602
5820 5818 5816 5814 5812 5811 5808 5805 5801 5798 5795 5792 5786 5781 5776 5770 5764 5756 5748 5738 5728 5718 5710 5703 5698 5692 5687 5681 5674 5669 5663 5658 5651 5644 5638 5631 5624 5616 5610 5604 5600 5597 5595 5595
5817 5813 5811 5809 5808 5807 5803 5801 5798 5795 5792 5787 5782 5777 5772 5765 5757 5749 5740 5731 5720 5710 5703 5697 5691 5686 5681 5675 5666 5663 5658 5651 5644 5637 5629 5621 5613 5605 5597 5592 5589 5586 5585 5586
5811 5808 5807 5805 5804 5801 5799 5796 5793 5790 5787 5782 5778 5773 5766 5759 5752 5743 5733 5723 5712 5705 5699 5693 5687 5682 5678 5672 5665 5659 5652 5645 5637 5629 5621 5612 5602 5594 5586 5580 5576 5575 5574 5576
5806 5805 5803 5802 5799 5797 5794 5792 5789 5786 5785 5779 5774 5768 5761 5754 5746 5737 5727 5717 5706 5700 5695 5689 5684 5679 5673 5667 5661 5654 5647 5639 5631 5623 5612 5601 5588 5578 5569 5563 5561 5561 5563 5567
5803 5802 5800 5798 5796 5795 5791 5789 5786 5782 5778 5774 5769 5763 5756 5749 5741 5732 5721 5710 5702 5697 5690 5684 5680 5675 5669 5664 5657 5650 5643 5635 5626 5615 5602 5589 5574 5559 5548 5542 5541 5545 5551 5558
5800 5799 5797 5794 5792 5790 5787 5784 5781 5778 5775 5770 5765 5759 5752 5744 5736 5725 5714 5704 5697 5692 5686 5681 5676 5671 5666 5660 5654 5648 5640 5632 5622 5610 5595 5577 5558 5540 5530 5526 5527 5533 5541 5550
5797 5795 5792 5790 5789 5785 5783 5780 5777 5775 5772 5767 5762 5755 5747 5739 5729 5719 5709 5699 5693 5688 5683 5677 5673 5668 5663 5657 5652 5646 5638 5629 5619 5605 5588 5568 5547 5531 5521 5520 5523 5529 5536 5545
5793 5791 5789 5788 5785 5781 5778 5777 5775 5772 5769 5764 5757 5749 5741 5732 5723 5712 5703 5696 5690 5684 5679 5674 5670 5666 5661 5656 5650 5644 5637 5628 5617 5603 5586 5565 5545 5529 5521 5519 5523 5530 5538 5547
5788 5788 5788 5785 5781 5778 5776 5773 5771 5768 5763 5757 5750 5742 5734 5725 5717 5711 5703 5694 5687 5682 5677 5672 5668 5664 5660 5655 5649 5643 5636 5628 5617 5605 5590 5570 5553 5537 5528 5526 5531 5537 5544 5552
Wind_Speed
15 10 10 9 8 13 15 15 19 13 18 25 28 33 36 33 31 29 27 27 28 29 30 28 31 37 31 32 31 34 37 40 41 41 42 42 37 33 32 32 34 36 39 39
16 12 10 9 13 18 20 18 16 19 22 25 31 32 30 29 30 34 33 32 30 28 29 29 28 28 36 32 35 37 40 40 41 41 41 40 31 30 32 34 37 38 39 40
16 12 13 14 16 20 22 22 21 24 26 30 36 33 33 33 34 35 33 31 31 31 27 27 27 32 32 36 35 39 41 41 42 41 41 35 31 32 35 37 39 40 40 41
19 15 15 19 19 20 23 24 25 26 31 33 38 39 36 31 33 28 26 28 29 28 30 30 32 32 35 34 38 39 40 41 40 41 41 35 33 35 37 40 40 42 44 46
20 20 16 21 22 26 23 27 29 31 33 35 36 40 32 32 30 26 25 25 27 30 27 29 33 34 31 37 38 38 39 40 41 42 39 34 35 36 38 38 40 43 46 47
25 22 19 17 28 31 26 25 29 33 34 38 36 39 35 33 28 29 28 28 27 26 27 31 33 33 38 37 39 40 42 42 43 44 42 37 36 38 40 40 42 44 47 49
26 22 25 29 31 26 24 29 35 37 35 39 40 39 33 32 30 30 28 28 27 26 29 32 33 34 37 38 41 42 44 43 45 46 42 40 39 40 42 41 42 45 48 50
26 27 23 27 26 27 30 34 37 42 42 41 37 38 34 31 32 31 29 29 28 28 29 30 32 36 39 40 42 44 43 42 44 44 43 42 42 42 42 43 45 47 49 51
24 22 26 26 25 27 33 39 37 39 42 44 37 36 31 33 34 32 31 28 29 30 31 33 36 39 43 44 43 45 45 45 48 46 44 43 43 44 45 45 46 48 48 49
23 25 23 25 27 34 37 40 33 36 41 42 41 37 37 35 34 33 32 30 32 35 37 39 41 41 44 48 47 48 47 46 44 45 44 43 43 45 46 46 45 45 45 43
22 24 24 27 28 32 36 36 31 34 37 43 41 33 33 29 34 35 30 28 31 36 37 39 41 45 49 51 49 49 48 45 43 41 44 43 44 44 44 44 43 42 41 38
26 33 35 35 37 36 37 35 36 34 36 33 33 26 26 29 33 35 30 30 36 42 42 42 45 49 51 52 50 49 46 44 43 40 41 43 42 42 40 42 41 39 40 34
31 34 35 35 35 38 34 27 27 31 29 27 27 27 28 31 36 37 36 38 45 42 42 44 49 49 51 52 49 46 45 41 38 40 40 41 42 41 42 43 39 38 37 32
33 28 22 22 22 22 21 23 24 25 25 25 24 26 26 33 34 33 35 41 42 43 43 48 49 52 52 49 47 44 40 38 40 39 41 41 41 40 42 41 37 36 34 31
17 20 21 24 23 24 28 24 27 25 24 26 27 31 33 35 37 40 40 42 44 47 49 52 52 50 48 46 44 41 39 40 38 40 41 41 41 40 43 38 35 35 32 30
16 19 20 22 22 22 17 18 22 25 25 23 30 32 34 35 38 41 43 44 45 46 43 49 50 47 45 44 40 37 39 39 35 39 40 42 40 41 43 38 34 33 29 28
16 17 19 20 22 24 19 23 27 26 25 27 29 32 35 37 37 37 40 44 47 50 49 48 45 43 41 38 40 43 41 33 39 40 41 41 42 39 44 37 34 32 28 26
16 19 17 14 16 17 19 23 23 21 22 27 33 34 32 32 36 41 46 49 50 52 48 43 40 38 36 38 41 34 36 36 39 40 42 42 43 41 43 36 34 31 27 24
17 19 20 17 17 18 19 20 22 20 23 30 28 28 31 36 42 45 48 48 49 46 39 37 37 35 35 42 36 27 36 37 39 41 44 46 48 45 43 36 33 29 26 21
17 17 18 14 18 21 21 21 18 22 27 26 27 30 35 39 42 45 47 48 44 34 32 32 32 30 31 35 33 34 36 37 39 44 47 50 48 49 41 36 32 28 25 19
13 14 15 16 20 20 19 20 22 27 23 25 29 34 38 42 43 46 45 45 35 30 30 29 29 27 32 33 32 35 37 39 43 46 49 53 56 52 46 38 32 29 25 18
17 18 18 16 17 17 19 18 25 21 23 27 32 35 37 40 41 45 42 40 30 28 27 26 24 31 31 31 33 37 37 40 45 50 55 59 59 56 47 36 29 26 22 18
19 17 16 16 18 19 19 19 20 20 24 29 32 34 36 39 41 43 41 36 28 28 25 26 27 28 29 31 32 36 38 42 47 52 59 62 62 52 36 20 14 14 17 20
16 17 15 16 19 20 17 18 16 20 25 28 30 33 36 39 40 44 43 36 26 28 30 28 25 25 30 30 30 34 39 43 48 55 61 64 56 43 24 10 3 12 18 23
16 15 17 14 17 15 12 12 16 19 24 28 30 34 38 41 43 46 47 40 25 28 31 26 21 23 29 30 30 34 38 42 49 56 59 60 49 39 23 5 10 15 19 23
15 16 7 13 11 13 13 15 18 22 26 29 33 37 40 41 43 43 42 39 24 27 31 25 22 22 26 29 31 33 37 41 46 54 55 59 51 40 24 14 18 19 22 20
Wind_Direction
210 198 219 253 270 275 286 303 306 310 342 332 333 334 330 326 325 328 318 301 307 307 309 316 316 315 308 317 317 313 314 311 309 307 307 310 302 295 297 305 308 308 308 307
209 214 239 262 267 277 288 298 317 315 325 333 330 330 333 327 323 320 314 309 306 310 312 317 313 318 304 316 312 311 312 309 308 308 311 311 296 298 303 306 308 307 306 308
213 217 254 275 271 281 286 297 299 307 320 325 323 325 329 325 323 317 306 302 307 316 313 315 311 309 311 314 313 313 310 309 309 311 316 307 296 299 303 307 308 309 309 307
214 222 264 263 269 286 294 304 302 307 318 313 321 318 328 324 320 315 313 311 313 315 311 311 309 309 315 312 312 309 307 307 310 315 316 301 296 299 305 307 307 307 309 308
213 232 260 264 273 271 293 297 309 310 308 310 317 314 318 311 314 312 313 314 312 312 306 304 306 309 311 310 308 307 307 308 314 315 311 294 290 297 303 305 307 308 308 308
221 235 256 264 262 268 288 298 296 300 305 308 308 309 316 316 313 312 311 314 314 305 304 299 308 310 306 306 308 307 306 312 317 315 312 301 296 304 307 306 307 308 308 306
229 235 249 264 265 272 297 292 297 300 300 305 306 310 317 317 313 314 316 313 306 305 302 306 310 306 305 309 308 309 311 317 315 313 310 304 302 304 305 306 307 306 307 307
242 241 250 259 275 280 285 292 298 293 299 303 305 309 316 316 315 315 312 305 305 304 303 308 306 306 306 307 310 313 313 314 313 314 312 309 306 305 306 307 307 309 309 309
263 252 260 278 284 286 292 298 287 301 307 309 307 307 313 317 315 312 310 306 304 303 306 308 309 307 308 310 311 311 312 309 312 316 312 308 306 308 309 307 309 310 310 311
272 273 275 283 285 295 293 292 293 304 308 307 306 312 322 318 317 314 311 309 311 311 313 311 311 311 308 309 313 312 310 305 307 312 312 308 309 309 308 308 309 311 310 313
266 268 274 278 283 291 297 280 286 296 296 302 305 317 318 318 316 310 307 309 316 315 312 313 314 312 311 310 311 310 306 306 300 311 314 310 308 307 307 308 310 309 312 313
276 279 282 282 283 290 289 292 292 295 299 300 307 319 316 307 322 309 304 301 311 320 316 313 312 311 308 308 309 308 308 307 306 311 314 309 308 310 311 311 311 310 312 314
275 281 282 282 285 295 296 301 297 298 302 306 307 310 311 316 322 315 300 298 308 314 312 313 310 306 304 306 310 310 309 309 311 312 311 312 316 316 316 314 311 310 312 316
275 279 288 291 298 298 300 300 296 297 300 299 309 312 305 313 317 313 311 308 314 312 313 309 305 305 307 311 311 310 309 311 314 316 316 316 316 316 320 313 309 308 311 316
294 296 297 295 296 296 293 286 299 302 304 310 314 315 316 314 313 313 314 315 313 312 308 307 306 308 311 312 312 311 309 310 315 315 316 317 315 314 320 313 307 308 308 313
292 290 290 298 295 292 299 301 303 306 309 309 317 317 314 315 315 317 316 314 311 310 313 302 311 314 314 313 313 310 307 312 319 317 319 319 316 315 320 314 306 307 303 307
286 297 297 285 284 288 296 305 310 314 303 313 316 313 315 317 318 318 320 319 317 318 312 312 317 316 317 318 316 318 316 324 320 320 321 321 319 316 322 312 305 304 298 300
291 301 306 304 301 296 297 303 309 304 306 312 319 322 323 324 326 325 327 326 323 317 317 318 319 321 319 321 321 327 328 325 322 323 323 321 321 318 320 308 302 300 292 291
287 303 315 301 305 313 311 309 305 306 304 317 323 325 329 330 330 328 327 326 322 321 323 323 324 322 319 323 318 329 327 325 327 325 324 323 324 320 317 307 298 294 286 285
299 302 303 306 314 311 316 314 319 320 319 323 325 330 332 334 336 332 331 329 325 324 323 324 325 324 321 331 334 333 331 330 330 330 326 324 322 319 312 300 292 284 280 276
321 313 317 318 305 307 314 322 326 322 324 326 332 334 335 336 334 336 333 331 327 327 328 330 332 335 337 338 335 335 334 336 333 327 326 326 324 321 313 299 284 272 267 259
313 315 311 303 303 304 309 317 322 323 328 332 334 336 335 336 335 339 338 335 327 334 332 335 340 337 339 339 338 336 338 337 333 332 332 331 327 321 312 301 282 261 248 230
305 302 297 304 307 302 304 310 317 324 328 332 334 336 336 338 341 344 342 340 336 338 340 336 331 339 341 342 340 339 342 339 337 337 337 336 333 329 324 309 281 236 210 201
291 291 301 310 305 307 305 312 317 322 328 327 333 333 338 342 345 348 348 347 345 339 333 331 341 343 345 344 339 344 344 342 342 344 344 344 343 342 333 320 241 177 182 185
297 307 317 310 310 313 314 307 313 322 322 329 335 338 342 346 349 351 353 349 349 346 345 342 344 341 345 346 342 345 345 347 349 350 351 357 358 359 0 349 146 147 164 171
307 303 315 329 321 316 311 313 319 322 326 333 339 343 344 348 350 349 350 350 346 346 349 341 337 338 340 346 346 345 348 352 353 357 360 11 11 16 27 86 129 138 146 161